Change the Weather History Date:

Saturday, May 25, 2013

  Actual Average Record
Temperature  
Mean Temperature 54 °F -  
Max Temperature 73 °F 62 °F 84 °F (2002)
Min Temperature 35 °F 37 °F 27 °F (2000)
Degree Days  
Heating Degree Days 12    
Growing Degree Days 4 (Base 50)    
Moisture  
Dew Point 33 °F    
Average Humidity 44    
Maximum Humidity 85    
Minimum Humidity 23    
Precipitation  
Precipitation 0.00 in - - ()
Sea Level Pressure  
Sea Level Pressure 29.89 in    
Wind  
Wind Speed 3 mph (ESE)    
Max Wind Speed 10 mph    
Max Gust Speed 16 mph    
Visibility 10 miles    
Events      
Averages and records for this station are not official NWS values.
T = Trace of Precipitation, MM = Missing Value Source: NWS Daily Summary

Daily Weather History Graph

Daily Weather History Graph

Search for Another Location

Airport or City:

Trip Planner

Search our weather history database for the weather conditions in past years. The results will help you decide how hot, cold, wet, or windy it might be!

Date:

Astronomy

May. 25, 2013 Rise Set
Actual Time 4:04 AM AKDT 12:09 AM AKDT
Civil Twilight 2:37 AM AKDT Sun does not rise
Nautical Twilight Sun does not rise Sun does not rise
Astronomical Twilight Sun does not rise Sun does not rise
Moon No Moon Rise 4:59 AM AKDT (5/25)
Length of Visible Light 24h 00m
Length of Day
20h 05m
Full, 99% of the Moon is Illuminated
May 25
Full
May 31
Last Quarter
Jun 8
New
Jun 16
First Quarter
Jun 23
Full

Hourly Weather History & Observations

Time (AKDT) Temp. Dew Point Humidity Pressure Visibility Wind Dir Wind Speed Gust Speed Precip Events Conditions
12:52 AM 48.0 °F 34.0 °F 58% 29.99 in 8.0 mi Calm Calm - N/A   Clear
1:52 AM 53.1 °F 35.1 °F 50% 29.99 in 10.0 mi Calm Calm - N/A   Clear
2:52 AM 45.0 °F 34.0 °F 65% 29.99 in 10.0 mi Calm Calm - N/A   Clear
3:52 AM 39.9 °F 33.1 °F 77% 29.98 in 10.0 mi Calm Calm - N/A   Scattered Clouds
4:52 AM 35.1 °F 30.9 °F 85% 29.98 in 10.0 mi Calm Calm - N/A   Clear
5:52 AM 37.9 °F 32.0 °F 79% 29.97 in 10.0 mi Calm Calm - N/A   Clear
6:52 AM 41.0 °F 34.0 °F 76% 29.96 in 10.0 mi Calm Calm - N/A   Mostly Cloudy
7:52 AM 45.0 °F 35.1 °F 68% 29.95 in 10.0 mi Calm Calm - N/A   Scattered Clouds
8:52 AM 54.0 °F 37.0 °F 53% 29.94 in 10.0 mi Calm Calm - N/A   Partly Cloudy
9:52 AM 53.1 °F 35.1 °F 50% 29.93 in 10.0 mi East 8.1 mph - N/A   Partly Cloudy
10:52 AM 61.0 °F 34.0 °F 36% 29.92 in 10.0 mi ESE 8.1 mph - N/A   Partly Cloudy
11:52 AM 66.0 °F 33.1 °F 29% 29.90 in 10.0 mi ESE 5.8 mph - N/A   Partly Cloudy
12:52 PM 68.0 °F 32.0 °F 26% 29.88 in 10.0 mi East 8.1 mph - N/A   Partly Cloudy
1:52 PM 68.0 °F 34.0 °F 28% 29.88 in 10.0 mi ESE 10.4 mph - N/A   Scattered Clouds
2:52 PM 69.1 °F 33.1 °F 26% 29.87 in 10.0 mi ESE 10.4 mph - N/A   Scattered Clouds
3:52 PM 72.0 °F 33.1 °F 24% 29.85 in 10.0 mi East 10.4 mph 16.1 mph N/A   Scattered Clouds
4:52 PM 70.0 °F 30.9 °F 24% 29.84 in 10.0 mi ESE 10.4 mph - N/A   Scattered Clouds
5:52 PM 70.0 °F 30.9 °F 24% 29.83 in 2.5 mi SE 9.2 mph - N/A   Haze
6:05 PM 69.8 °F 30.2 °F 23% 29.82 in 9.0 mi SE 10.4 mph - N/A   Clear
6:52 PM 66.9 °F 32.0 °F 27% 29.82 in 10.0 mi SSE 8.1 mph - N/A   Scattered Clouds
7:52 PM 64.9 °F 32.0 °F 29% 29.81 in 10.0 mi South 5.8 mph - N/A   Scattered Clouds
8:52 PM 68.0 °F 34.0 °F 28% 29.81 in 10.0 mi Calm Calm - N/A   Scattered Clouds
9:52 PM 62.1 °F 32.0 °F 32% 29.81 in 10.0 mi Calm Calm - N/A   Clear
10:52 PM 62.1 °F 36.0 °F 38% 29.81 in 8.0 mi Calm Calm - N/A   Clear
11:52 PM 52.0 °F 36.0 °F 54% 29.81 in 9.0 mi Calm Calm - N/A   Clear